Harrisburg, PA

2:31 AM EDT on April 28, 2017 (GMT -0400)
Capital City

Weather History for KCXY - May, 2013

Change the Weather History Date:

Wednesday, May 22, 2013

  Actual Average Record
Temperature  
Mean Temperature 77 °F -  
Max Temperature 89 °F 71 °F 96 °F (1941)
Min Temperature 66 °F 52 °F 38 °F (1895)
Cooling Degree Days 12    
Growing Degree Days 27 (Base 50)    
Moisture  
Dew Point 65 °F    
Average Humidity 71    
Maximum Humidity 97    
Minimum Humidity 43    
Precipitation  
Precipitation 0.03 in - - ()
Sea Level Pressure  
Sea Level Pressure 29.86 in    
Wind  
Wind Speed 4 mph (WSW)    
Max Wind Speed 22 mph    
Max Gust Speed 34 mph    
Visibility 9 miles    
Events Rain , Thunderstorm    
Averages and records for this station are not official NWS values.
T = Trace of Precipitation, MM = Missing Value Source: NWS Daily Summary

Daily Weather History Graph

Daily Weather History Graph

Search for Another Location

Airport or City:

Trip Planner

Search our weather history database for the weather conditions in past years. The results will help you decide how hot, cold, wet, or windy it might be!

Date:

Astronomy

May. 22, 2013 Rise Set
Actual Time 5:45 AM EDT 8:23 PM EDT
Civil Twilight 5:14 AM EDT 8:54 PM EDT
Nautical Twilight 4:34 AM EDT 9:34 PM EDT
Astronomical Twilight 3:50 AM EDT 10:18 PM EDT
Moon 5:42 PM EDT (5/22) 3:48 AM EDT (5/22)
Length of Visible Light 15h 40m
Length of Day
14h 37m
Waxing Gibbous, 91% of the Moon is Illuminated
May 22
Waxing Gibbous
May 25
Full
May 31
Last Quarter
Jun 8
New
Jun 16
First Quarter

Hourly Weather History & Observations

Time (EDT) Temp. Heat Index Dew Point Humidity Pressure Visibility Wind Dir Wind Speed Gust Speed Precip Events Conditions
12:56 AM 73.9 °F - 68.0 °F 82% 29.86 in 10.0 mi West 3.5 mph - N/A   Clear
1:56 AM 73.9 °F - 68.0 °F 82% 29.86 in 10.0 mi Calm Calm - N/A   Clear
2:56 AM 71.1 °F - 66.9 °F 87% 29.85 in 9.0 mi Calm Calm - N/A   Clear
3:56 AM 68.0 °F - 66.9 °F 96% 29.85 in 7.0 mi Calm Calm - N/A   Clear
4:56 AM 69.1 °F - 66.9 °F 93% 29.84 in 6.0 mi Calm Calm - N/A   Clear
5:56 AM 66.9 °F - 66.0 °F 97% 29.86 in 3.0 mi Calm Calm - N/A   Clear
6:56 AM 69.1 °F - 66.9 °F 93% 29.88 in 4.0 mi West 4.6 mph - N/A   Clear
7:56 AM 72.0 °F - 69.1 °F 91% 29.89 in 6.0 mi West 4.6 mph - N/A   Clear
8:56 AM 75.0 °F - 69.1 °F 82% 29.90 in 7.0 mi Calm Calm - N/A   Clear
9:56 AM 79.0 °F - 68.0 °F 69% 29.90 in 10.0 mi SW 5.8 mph - N/A   Partly Cloudy
10:56 AM 80.1 °F 82.1 °F 66.0 °F 62% 29.91 in 10.0 mi SSW 6.9 mph - N/A   Mostly Cloudy
11:56 AM 82.0 °F 83.8 °F 64.9 °F 56% 29.90 in 10.0 mi SSW 4.6 mph - N/A   Clear
12:56 PM 84.0 °F 84.9 °F 63.0 °F 49% 29.87 in 10.0 mi WSW 8.1 mph - N/A   Clear
1:56 PM 86.0 °F 86.3 °F 62.1 °F 44% 29.86 in 10.0 mi South 5.8 mph - N/A   Clear
2:56 PM 87.1 °F 88.3 °F 64.0 °F 46% 29.83 in 10.0 mi Variable 5.8 mph - N/A   Clear
3:56 PM 88.0 °F 89.3 °F 64.0 °F 45% 29.82 in 10.0 mi WSW 8.1 mph 19.6 mph N/A   Clear
4:56 PM 88.0 °F 88.7 °F 63.0 °F 43% 29.79 in 10.0 mi South 10.4 mph 23.0 mph N/A   Clear
5:56 PM 87.1 °F 87.8 °F 63.0 °F 44% 29.79 in 10.0 mi South 11.5 mph - N/A   Clear
6:56 PM 84.9 °F 86.6 °F 64.9 °F 51% 29.80 in 10.0 mi South 10.4 mph - N/A   Clear
7:45 PM 82.4 °F 83.9 °F 64.4 °F 54% 29.84 in 10.0 mi WSW 6.9 mph - N/A Thunderstorm Clear
7:56 PM 77.0 °F - 60.1 °F 56% 29.86 in 10.0 mi West 21.9 mph 34.5 mph N/A   Mostly Cloudy
8:23 PM 71.6 °F - 62.6 °F 73% 29.88 in 10.0 mi West 10.4 mph 20.7 mph N/A Thunderstorm Thunderstorm
8:56 PM 71.1 °F - 63.0 °F 75% 29.89 in 10.0 mi West 4.6 mph - 0.00 in Rain , Thunderstorm Light Thunderstorms and Rain
9:26 PM 69.8 °F - 64.4 °F 83% 29.89 in 10.0 mi West 3.5 mph - 0.00 in Rain Light Rain
9:56 PM 69.1 °F - 64.0 °F 84% 29.89 in 9.0 mi Calm Calm - 0.00 in Rain Light Rain
10:56 PM 68.0 °F - 64.9 °F 90% 29.90 in 10.0 mi Calm Calm - 0.02 in Rain Light Rain
11:56 PM 68.0 °F - 64.0 °F 87% 29.88 in 10.0 mi WNW 3.5 mph - 0.01 in Rain Light Rain